This demonstration page uses our WeatherBlox Daily Observations layout. Learn more.

Left ArrowRight Arrow

38.20091, -84.87328

Hourly Observations for April 22, 2020

Temp ( °F °C ) Dew Point ( °F °C ) Humidity (%) Winds ( mph kmh ) Pressure ( in mb ) Visibility ( mi km ) Precip ( " mm )
12:53 am 00:53 Clear 38 3.3 28 -2.2 68 68 Calm 30.04 1017 10 16 0.00 0.00
1:53 am 01:53 Clear 36 2.2 29 -1.7 76 76 Calm 30.05 1018 10 16 0.00 0.00
2:53 am 02:53 Clear 35 1.7 28 -2.2 76 76 Calm 30.04 1017 10 16 0.00 0.00
3:53 am 03:53 Clear 35 1.7 28 -2.2 76 76 Calm 30.04 1017 10 16 0.00 0.00
4:53 am 04:53 Clear 34 1.1 28 -2.2 79 79 Calm 30.05 1018 10 16 0.00 0.00
5:53 am 05:53 Clear 32 0 28 -2.2 85 85 Calm 30.06 1018 10 16 0.00 0.00
6:53 am 06:53 Clear 34 1.1 28 -2.2 79 79 Calm 30.07 1018 10 16 0.00 0.00
7:53 am 07:53 Sunny 36 2.2 30 -1.1 79 79 SW 5 7 30.09 1019 10 16 0.00 0.00
8:53 am 08:53 Sunny 47 8.3 31 -0.6 54 54 SW 6 9 30.11 1020 10 16 0.00 0.00
9:53 am 09:53 Sunny 56 13.3 30 -1.1 37 37 E 3 6 30.08 1019 10 16 0.00 0.00
10:53 am 10:53 Sunny 59 15 32 0 36 36 VRB 5 7 30.08 1019 10 16 0.00 0.00
11:53 am 11:53 Sunny 61 16.1 31 -0.6 32 32 S 6 9 30.09 1019 10 16 0.00 0.00
12:53 pm 12:53 Sunny 63 17.2 32 0 31 31 undefined N/A 30.06 1018 10 16 0.00 0.00
1:53 pm 13:53 Sunny 65 18.3 35 1.7 33 33 SSE 7 11 30.03 1017 10 16 0.00 0.00
2:53 pm 14:53 Sunny 68 20 38 3.3 33 33 SE 8 13 30.00 1016 10 16 0.00 0.00
3:53 pm 15:53 Sunny 69 20.6 37 2.8 31 31 SW 10 17 29.97 1015 10 16 0.00 0.00
4:53 pm 16:53 Sunny 71 21.7 39 3.9 31 31 undefined N/A 29.95 1014 10 16 0.00 0.00
5:53 pm 17:53 Sunny 69 20.6 39 3.9 33 33 SSW 8 13 29.92 1013 10 16 0.00 0.00
6:53 pm 18:53 Sunny 67 19.4 38 3.3 35 35 SSW 12 19 29.91 1013 10 16 0.00 0.00
7:53 pm 19:53 Sunny 65 18.3 38 3.3 37 37 SSW 8 13 29.93 1013 10 16 0.00 0.00
8:53 pm 20:53 Clear 62 16.7 38 3.3 41 41 S 6 9 29.93 1014 10 16 0.00 0.00
9:53 pm 21:53 Clear 57 13.9 41 5 55 55 WSW 3 6 29.94 1014 10 16 0.00 0.00
10:53 pm 22:53 Clear 55 12.8 41 5 59 59 Calm 29.93 1014 10 16 0.00 0.00
11:53 pm 23:53 Clear 56 13.3 41 5 57 57 Calm 29.91 1013 10 16 0.00 0.00

Powered by AerisWeather